Retour au catalogue

STARLINK-34348

ActifCommunicationsSSO
NORAD 64152·PAYLOAD·🇺🇸 United States

Lancé May 27, 2025 depuis Vandenberg Space Force Base

Loading…

Prochains Passages (prochaines 24 heures)

TLE

FraisSource: CelesTrak SupGP

Époque: Sep 14, 2026, 21:16 UTC

1 64152C 25112G   26257.88659722 -.00006285  00000+0 -19524-3 0  2571
2 64152  97.2830 305.0029 0001181  96.1761 345.8207 15.33419531    14

Suivez STARLINK-34348 en temps réel avec AllMySat

Download on the App Store